Location: Apeadero de Los Molinos-Guadarrama
(40.7091°N, 4.0689°W)
Time: 11:50:09
(UTC+00:00)

Cosmos 1536 - Pass Details

Date: 14 May 2021
Orbit: 539 x 558 km, 82.5° (Epoch: 18 June)

Event Time Altitude Azimuth Distance (km) Brightness Sun altitude
Rises 22:27:39 0° 344° (NNW) 2,736 7.7 -25.6°
Reaches altitude 10° 22:29:55 10° 336° (NNW) 1,833 6.5 -25.8°
Enters shadow 22:33:21 38° 280° (W) 851 4.0 -26.1°
